sat.trackr.live / text

‹ back to catalog

STARLINK-37431

NORAD 68812 · 2026-089L

PAYLOAD ACTIVE UNKNOWN

§ Identity

Operator
Country
US
Launch date
2026-04-23
Launch site
AFWTR
Launch vehicle
Mass (kg)
RCS (m²)

Purposes: comms

External: N2YO · Heavens-Above · Gunter

§ Orbital elements

Epoch: 2026-09-19T19:44:39.426720Z

Period
93.91 min
Inclination
97.2855°
Eccentricity
0.0001918
Mean motion
15.33448470 rev/d
Perigee alt
464.2 km
Apogee alt
466.8 km
Semi-major
6,843.7 km
B*
4.3026e-4
RAAN
108.5704°
Arg perigee
77.8784°
Mean anomaly
282.2674°
Rev number
2,315

§ Raw data

STARLINK-374311 68812U 26089L   26262.82267855  .00013843  00000+0  43026-3 0  99972 68812  97.2855 108.5704 0001918  77.8784 282.2674 15.33448470 23159

JSON: /api/v1/satellites/68812 · /tle

For live sub-satellite position, see the globe view (requires WebGL).

§ Visibility from observer

Set your observer location to see the next 7 days of passes ≥ 10°. The values pass through the URL so the page stays shareable.

No JS? Fill the form by hand. The geolocation button needs JavaScript.